www.pogodaiklimat.ru

АРХИВ ПОГОДЫ в Филадельфии

Время (UTC), дата Ветер
(напр.,м/с)
 
Видим.   Явления Облачность Т
(С)
Тd
(С)
f
(%)
Тe
(С)
Тes
(С)
Комфортность

P
(гПа)

Po
(гПа)
Тmin
(С)
Tmax
(С)
R
(мм)
SD
(см)
20:54 20.11 З  16 км    8/0 7800 м
[верхняя] 
+8.9  -5.6  35  +5  +5    1020.4  1020.0         
21:54 20.11 З  16 км    5/0 2400 м
[средняя верхняя] 
+7.8  -5.0  40  +4  +4    1020.7  1020.3         
22:54 20.11 ЮЗ  16 км    2/0 7800 м
[верхняя] 
+7.8  -4.4  42  +5  +5    1020.8  1020.6         
23:54 20.11 ЮЗ  16 км    ясно  +6.7  -3.3  49  +4  +4    1021.0  1020.6    +8.9     
00:54 21.11 ЮЗ  16 км    ясно  +6.1  -3.9  49  +3  +3    1021.2  1021.0         
01:54 21.11 Ю  16 км    ясно  +5.0  -2.8  57  +1  +1    1021.3  1021.0         
02:54 21.11 Ю  16 км    ясно  +5.0  -2.8  57  +1  +1    1021.7  1021.3         
03:54 21.11 Ю  16 км    ясно  +5.0  -2.8  57  +1  +1    1021.7  1021.3         
04:54 21.11 Ю  16 км    5/0 7800 м
[верхняя] 
+4.4  -2.2  62  +1  +1    1021.7  1021.3         
05:54 21.11 ЮЗ  16 км    5/0 7800 м
[верхняя] 
+5.6  -2.2  57  +2  +2    1021.5  1021.3         
06:54 21.11 Ю  16 км    8/0 7500 м
[верхняя] 
+5.6  -1.1  62  +2  +2    1021.4  1021.3         
07:54 21.11 Ю  16 км    8/0 7500 м
[верхняя] 
+5.0  -1.1  65  +2  +2    1021.2  1021.0         
08:54 21.11 Ю  16 км    5/0 7500 м
[верхняя] 
+4.4  -1.1  67  +1  +1    1020.6  1020.3         
09:54 21.11 ЮЗ  16 км    2/0 7500 м
[верхняя] 
+5.0  -0.6  67  +1  +1    1020.5  1020.3         
10:54 21.11 Ю  16 км    2/0 7500 м
[верхняя] 
+5.6  -0.6  64  +2  +2    1020.7  1020.6         
11:54 21.11 Ю  16 км    5/0 8400 м
[верхняя] 
+5.0  -0.6  67  +2  +2    1020.7  1020.6         
12:54 21.11 Ю  16 км    5/0 8400 м
[верхняя] 
+5.6  +0.6  70  +2  +2    1020.9  1020.6         
13:54 21.11 ЮЗ  16 км    5/0 8400 м
[верхняя] 
+8.9  0.0  54  +5  +5    1020.7  1020.6         
14:54 21.11 ЮЗ  8
{11} 
16 км    8/0 8400 м
[верхняя] 
+11.1  -0.6  44  +8  +8    1020.6  1020.3         
15:54 21.11 ЮЗ  10
{13} 
16 км    8/0 8400 м
[верхняя] 
+12.8  -1.1  38  +10  +10      1019.6         
16:54 21.11 ЮЗ  16 км    8/0 8400 м
[верхняя] 
+13.0  -1.0  38  +10  +11    1019.3  1018.9         
17:54 21.11 Ю  7
{11} 
16 км    8/0 7200 м
[верхняя] 
+13.9  -1.7  34  +12  +13      1018.3  +4.4  +13.9     
18:54 21.11 ЮЗ  16 км    8/0 6600 м
[верхняя] 
+14.4  -2.2  32  +13  +14    1017.2  1016.9         
19:54 21.11 ЮЗ  9
{11} 
16 км    8/0 7200 м
[верхняя] 
+15.0  0.0  36  +13  +13    1016.6  1016.2         
20:54 21.11 Ю  16 км    8/0 7500 м
[верхняя] 
+14.4  +1.1  40  +13  +13    1017.1  1016.9         
21:54 21.11 Ю  4
{8} 
16 км    8/0 7500 м
[верхняя] 
+12.8  +2.2  48  +11  +11    1017.0  1016.6         
22:54 21.11 Ю  16 км    8/0 7500 м
[верхняя] 
+12.2  +3.3  54  +10  +10    1017.1  1016.9         
23:54 21.11 Ю  16 км    8/0 7500 м
[верхняя] 
+11.7  +4.4  61  +10  +10    1017.5  1017.3         
00:54 22.11 ЮЗ  16 км    8/0 7500 м
[верхняя] 
+12.2  +4.4  59  +10  +10    1017.3  1016.9         
01:54 22.11 ЮЗ  16 км    8/0 7500 м
[верхняя] 
+13.3  +3.3  51  +12  +12    1017.5  1017.3         
02:54 22.11 ЮЗ  16 км    8/0 6000 м
[средняя верхняя] 
+12.0  +4.0  58  +10  +10    1017.6  1017.3         
03:54 22.11 ЮЗ  16 км    8/0 6000 м
[средняя верхняя] 
+11.7  +5.0  63  +10  +10    1017.0  1016.6         
04:54 22.11 Ю  16 км    8/0 6000 м
[средняя верхняя] 
+11.0  +6.0  71  +9  +9    1016.4  1016.2         
05:54 22.11 Ю  16 км    10/0 5400 м
[средняя верхняя] 
+12.0  +7.0  71  +10  +10    1015.6  1015.2  +10.6  +13.3     
06:54 22.11 Ю  16 км    10/0 4200 м
[средняя верхняя] 
+12.0  +7.0  71  +11  +11    1015.0  1014.5         
07:54 22.11 Ю  16 км    10/0 3000 м
[средняя верхняя] 
+11.7  +7.8  77  +10  +10    1014.5  1014.2         
08:54 22.11 Ю  16 км    10/2 1260 м
[средняя верхняя] 
+12.0  +8.0  76  +10  +10    1013.5  1013.2         
09:54 22.11 Ю  16 км    10/2 1200 м
[средняя верхняя] 
+11.0  +8.0  82  +9  +9    1012.6  1012.5         
10:54 22.11 Ю  16 км  слабый дождь  10/8 900 м
[средняя] 
+11.1  +8.9  86  +9  +9      1012.5         
11:19 22.11 ЮЗ  11 км  дождь  10/10 360 м  +11.0  +10.0  94  +8  +8      1012.9         
11:24 22.11 З  8 км  дождь  10/10 360 м  +11.0  +10.0  94  +8  +8      1012.9         
11:37 22.11 З  11 км  слабый дождь  10/10 300 м  +11.0  +9.0  87  +9  +9      1012.9         
11:54 22.11 З  13 км  слабый дождь  10/5 1050 м
[средняя] 
+10.6  +9.4  92  +8  +8    1012.9  1012.5  +10.6  +12.2  2.0   
12:54 22.11 З  14 км    10/2 300 м
[средняя] 
+11.1  +10.0  93  +9  +9    1013.3  1012.9         
13:54 22.11 З  14 км    10/8 1650 м
[средняя] 
+11.7  +10.0  89  +9  +9    1012.9  1012.5         
14:02 22.11 З  16 км    10/8 1800 м
[средняя] 
+11.7  +9.4  86  +10  +10      1012.5         
14:54 22.11 З  16 км    10/2 1800 м
[средняя верхняя] 
+11.7  +8.9  83  +9  +10    1013.5  1013.2         
15:54 22.11 СЗ  7
{9} 
16 км    8/0 2100 м
[средняя] 
+12.8  +6.7  66  +10  +10    1013.4  1013.2         

 

Местоположение метеостанции Philadelphia International Airport: широта 39.8733 долгота -75.2268 высота над уровнем моря 2 м.

В архиве по умолчанию представлена погода в Филадельфии за последние 1-2 суток. Обновление информации о фактической погоде в базе происходит ежечасно! Архивные данные за месяц целиком и за предыдущие месяцы Вы можете получить, выбрав интересующий диапазон дат из раскрывающегося списка и нажав кнопку "Ввод!".

Внимание! Архив погоды МЕТАР в базе сайта в настоящее время начинается c 1 января 2013 г. Нет смысла пытаться выбрать более раннюю дату.

Внимание! Время в таблицах - всемирное. Для получения местного времени необходимо прибавить поправку, которая в Филадельфии равна -5 ч.

Ветер - указаны скорость ветра в м/с и направление, откуда дует ветер: С - северный, СВ - северо-восточный, В - восточный, ЮВ - юго-восточный, Ю - южный, ЮЗ - юго-западный, З - западный, СЗ - северо-западный.
Видимость - горизонтальная дальность видимости в метрах или километрах. При видимости от 1 до 10 км при отсутствии осадков обычно наблюдается дымка, при ухудшении видимости до 1 км и менее - туман. В сухую погоду видимость может ухудшаться дымом, пылью или мглою.
Атмосферные явления - указаны явления, наблюдавшиеся в указанный момент времени.
Облачность - указаны через наклонную черту верхняя и нижняя облачность в баллах и высота нижней границы облаков в метрах. Внимание: облачность, как и прочие метеорологические величины в США измеряются автоматическими метеостанциями. Указанные значения в баллах носят условный характер и показывают процент времени, в течение которого, в среднем, лазерный луч высотомера отражался от облаков обратно.
T - Температура воздуха - температура, измеренная на высоте 2 м над землей.
Td - Температура точки росы - температура, при понижении до которой содержащийся в воздухе водяной пар достигнет насыщения.
f - Относительная влажность воздуха - влажноcть воздуха, измеренная на высоте 2 м над землей.
Te - Эффективная температура - температура, которую ощущает одетый по сезону человек в тени. Характеристика душности погоды. При расчете учитывается влияние влажности воздуха и скорости ветра на теплоощущения человека.
Tes - Эффективная температура на солнце - температура, которую ощущает человек, с поправкой на солнечный нагрев. Характеристика знойности погоды. Зависит от высоты солнца над горизонтом, облачности и скорости ветра. Ночью, в пасмурную погоду, а также при ветре 12 м/с и более поправка равна нулю.
P - Атмосферное давление - приведенное к уровню моря атмосферное давление.
Po - Атмосферное давление - измеренное на уровне метеостанции атмосферное давление.
Tmin - Минимальная температура - минимум температуры воздуха на высоте 2 м над землей.
Tmax - Максимальная температура - максимум температуры воздуха на высоте 2 м над землей.
R - Количество осадков - Количество выпавших осадков за 3 или 6 часов, мм.
SD - Снежный покров - Высота снежного покрова, см.